Showing default

CARTOSAT 2F, 43111

Orbit data source: Space-Track

CARTOSAT 2F, 43111 is a payload satellite owned by ISRO (IN) in SSO that was launched on Fri, 12 Jan 2018 UTC via a PSLV-XL launch vehicle from the Sirharikota (SRI). Payload-class satellites include a variety of spacecraft equipped with specific instruments for various scientific and technological missions. These include communications satellites like Starlink; space stations such as the ISS; scientific satellites like the Hubble; Earth observation satellites from companies like Planet Labs, Umbra, and HawkEye 360; GPS; miniature CubeSats for education and research; and military/defense satellites.

Loading next visibility...
Identifier
43111, 2018-004A
Orbit
SSO
Last TLE update
7 hours ago
Origin
Manufacturer
ISRO
Mission
Operational Civil Imaging
Bus & Motor
IRS-2, AOCS
Mass
712 kg wet, 639 kg dry
Launch date (UTC)
2018-01-12 (7 years ago)
Launch vehicle
PSLV-XL
Launch site
Sirharikota (SRI)
Object type
Payload
Rocket body
Debris
Shape & HBR
Hex Cyl + 2 Pan, 8 m
Radar Cross Section
9.780 m², Large (>1 m²)

Expand to show TLE details & history

TLE from 7 hours ago
0 CARTOSAT 2F
1 43111U 18004A   25182.61510316  .00004088  32510-8  19474-3 0  9991
2 43111  97.4529 242.6432 0002095  70.9140 289.2322 15.19180249414106
Epoch: 2025-07-01T14:45Z
TLE epoch observation values (Epoch: 2025-07-01T14:45:44.913Z)
Latitude
0.00008°
Longitude
101.29804°
Altitude
510.93 km
Speed
7.609 km/s
True Right ascension
16h 10m 34s
True Declination
0° 00' 00"
Sunlit
Object was in full shadow at epoch
Visualization orbit readout
Latitude
62.75159°
Longitude
86.93708°
Altitude
517.678 km
Speed
7.611 km/s
Apparent Right ascension
18h 53m 56s
Apparent Declination
18° 52' 16"
Sunlit
Object is in daylight
Visualization observer readout
Local Sidereal Time
09:02:06
Azimuth
33.353° NE
Elevation
-24.057°
Doppler factor
1
Orbital elements
Apogee altitude
506.728 km
Perigee altitude
503.844 km
Semi-major axis
6,883.423 km
Eccentricity
0.00021
Inclination
97.4529°
RAAN
242.6432°
Arg. of periapsis
70.914°
True anomaly
Unknown
Mean anomaly
289.2322°
Eccentric anomaly
Unknown
Mean motion
3.80046 °/min
Orbital period
94.73 mins
BSTAR
0.00019474
Loading maneuver chart data...
Loading SW <> Apogee altitude chart data...
Loading historical data...
Loading historical data...
Loading historical data...
Loading historical data...
Loading historical data...
Loading historical data...
Loading historical data...

CARTOSAT 2F Visibility forecast

Observer location: undefined°, undefined°

Span
Click to sort rows by Start time (UTC) header in descending order
Start Az.
Max El. time (UTC)
Max El. Az.
Max El.
End time (UTC)
End Az.
6 mins2025-07-02 03:32:51.885Z132.966° SE2025-07-02 03:35:51.885Z59.85° ENE28.93°2025-07-02 03:38:51.885Z6.897° NNE
5 mins2025-07-02 16:37:51.885Z28.238° NE2025-07-02 16:39:51.885Z75.245° E37.697°2025-07-02 16:42:51.885Z173.497° S
|